Location: Newark
(52.2090°N, 4.1550°W)
Time: 08:34:03
(UTC+00:00)

Explorer 7 - Pass Details

Date: 26 September 2019
Orbit: 485 x 680 km, 50.3° (Epoch: 20 October)

Event Time Altitude Azimuth Distance (km) Brightness Sun altitude
Rises 19:42:05 0° 192° (SSW) 2,709 10.3 -15.3°
Enters shadow 19:44:59 - 168° (SSE) 1,924 9.3 -15.7°
Reaches altitude 10° 19:45:17 10° 165° (SSE) 1,867 - -15.7°
Maximum altitude 19:47:20 13° 136° (SE) 1,693 - -16.0°
Drops below altitude 10° 19:49:27 10° 107° (ESE) 1,933 - -16.3°
Sets 19:52:53 0° 81° (E) 2,891 - -16.8°
